NOAA 16 DEB, 41151

Orbit data source: Space-Track

NOAA 16 DEB, 41151 is space debris in SSO originally from a launch on Thu, 21 Sep 2000 UTC launched from the Air Force Western Test Range (AFWTR). Debris objects in space refer to the collection of defunct objects orbiting the Earth. Examples of debris include non-operational satellites, rocket bodies, and fragments generated from explosions, collisions, or faulty payload assembly.

Loading next visibility...
Identifier
41151, 2000-055CJ
Orbit
SSO
Country
Flag of USUS
Related business
Manufacturer
Unknown
Mission
Spacecraft
Bus & Motor
Unknown
Mass
Unknown
Launch date (UTC)
2000-09-21 (26 years ago)
Launch vehicle
Unknown
Launch site
Air Force Western Test Range (AFWTR)
Object type
Payload
Rocket body
Debris
Shape & HBR
Unknown shape, 0.1 m
Radar Cross Section
Small (<0.1 m²)

Expand to show TLE details & history
Last TLE update: 5 days ago

TLE from 5 days ago
0 NOAA 16 DEB
1 41151U 00055CJ  26122.23461985  .00004315  00000-0  21865-2 0  9990
2 41151  98.7911 126.1567 0059597 113.6098 247.1349 14.15626802532870
Epoch: 2026-05-02T05:37Z
TLE epoch observation values (Epoch: 2026-05-02T05:37:51.155Z)
Latitude
0.00004°
Longitude
-178.46189°
Altitude
860.023 km
Speed
7.414 km/s
True Right ascension
08h 24m 37s
True Declination
0° 00' 00"
Sunlit
Object was in daylight at epoch
Visualization orbit readout
Latitude
Unknown
Longitude
Unknown
Altitude
Unknown
Speed
Unknown
Apparent Right ascension
Unknown
Apparent Declination
Unknown
Sunlit
N/A
Visualization observer readout
Local Sidereal Time
11:57:00
Azimuth
Unknown
Elevation
Unknown
Doppler factor
Unknown
Orbital elements
Apogee altitude
880.351 km
Perigee altitude
794.347 km
Semi-major axis
7,215.486 km
Eccentricity
0.00596
Inclination
98.7911°
RAAN
126.1567°
Arg. of periapsis
113.6098°
True anomaly
246.50746°
Mean anomaly
247.1349°
Eccentric anomaly
246.821°
Mean motion
3.54115 °/min
Orbital period
101.66 mins
BSTAR
0.0021865
Loading maneuver chart data...
Computing Atmospheric mass density...
Loading historical data...
Loading historical data...
Loading historical data...
Loading historical data...
Loading historical data...
Loading historical data...
Loading historical data...

Documentation

Showing up to 5 results
|